ラッセル-リニア彗星

156P/Russell-LINEAR (2020)

English version
Home page
Updated on July 3, 2021

---------------------------------------------------------------------

・ プロフィール

・ 写真集

・ 軌道要素

Epoch 2020 Nov. 7.0 TT = JDT 2459160.5
T 2020 Nov. 17.87375 TT                                 Rudenko
q   1.3330191            (2000.0)            P               Q
n   0.15314480     Peri.    0.42765     +0.81128686     -0.55884352
a   3.4599345      Node    35.36956     +0.53551941     +0.59242143
e   0.6147271      Incl.   17.26297     +0.23459026     +0.58028508
P   6.44
From 1912 observations 1986 Sept. 25-2021 June 13, mean residual 0".8.

・ 星図

・ 光度変化

        m1 = 16.8 + 5 logΔ +   5.0 log r          [   ,-60]  (              〜2020年 9月18日)
        m1 = -3.5 + 5 logΔ + 120   log r          [-60,  0]  (2020年 9月18日〜2020年11月17日)
        m1 =  9.5 + 5 logΔ +  15.0 log r(t - 25)  [  0,   ]  (2020年11月17日〜              )

---------------------------------------------------------------------

軌道要素はM.P.E.C. 2021-N06に掲載されたものです。
星図はステラナビゲータ Ver.10 (アストロアーツ) で作成したものです。
光度グラフはComet for Windowsで作成したものです。

---------------------------------------------------------------------

Copyright(C) Seiichi Yoshida (comet@aerith.net). All rights reserved.